Weather in Troitsa

Russia / Perm Krai     57°59′29″N   56°47′19″E
temp.,
°C
wind,
m/s
gust,
m/s
humid.,
%
clouds,
%
prec.,
mm/h
press.,
hPa
HPBL,
m
27 february, sat
sat2723:00−20se269475 0.0 1020138
02:00−21ese369378 0.0 1018123
05:00−21ese3109440 0.0 1016241
08:00−20ese499082 0.0 1013253
11:00−18ese478591 0.0 1011319
14:00−14e4884100 0.0 1009517
17:00−13e5989100 0.1 1009707
20:00−16ese51090100 0.3 1010643
28 february, sun
sun2823:00−19e4109199 0.3 1010480
02:00−20e4109292 0.0 1010414
05:00−20ene4119284 0.0 1010419
08:00−20ene4109287 0.0 1010408
11:00−18ene498990 0.0 1010478
14:00−15ene4887100 0.1 1010562
17:00−14ene4887100 0.1 1011601
20:00−18ene399397 0.0 1013412
1 march, mon
mon123:00−21ne379491 0.0 1016197
02:00−23ne259525 0.0 101794
05:00−24ne239514 0.0 101982
08:00−24ne22950 0.0 102035
11:00−18ne23885 0.0 1021252
14:00−13ne228258 0.0 1020478
17:00−12nne118379 0.0 1020445
20:00−18w119668 0.0 101920
2 march, tue
tue223:00−19sw119834 0.0 101920
02:00−20ssw22997 0.0 101720
05:00−21s239817 0.0 101654
08:00−21s389864 0.0 1014185
11:00−17s489282 0.0 1012335
14:00−14s5988100 0.0 1009515
17:00−13s51088100 0.0 1007513
20:00−13s41194100 0.5 1006535
3 march, wed
wed323:00−14s3895100 1.0 1006508
02:00−15s3795100 0.3 1005410
05:00−15s3795100 0.5 1005347
08:00−15sse2696100 0.3 1004290
11:00−13sse2393100 0.8 1004304
14:00−11sse1287100 0.3 1003393
17:00−10sse0192100 0.7 1003250
20:00−12nnw0197100 0.3 100321